This is the latest recevied weather packets stored in our database for station/object K6GKS. If no packets are shown the sender has not sent any weather packets the latest 10 day(s).
| Time | Temp. | Humidity | Pressure | Rain* | Wind** | Luminosity | Snow |
|---|---|---|---|---|---|---|---|
| 1787436542 | 32.78° C | 26% | 1013.4 hPa | 0 mm | - | - | - |
| 1787436362 | 32.78° C | 28% | 1013.7 hPa | 0 mm | - | - | - |
| 1787436183 | 32.78° C | 28% | 1013.7 hPa | 0 mm | - | - | - |
| 1787436002 | 32.22° C | 27% | 1013.7 hPa | 0 mm | - | - | - |
| 1787435822 | 32.78° C | 26% | 1013.7 hPa | 0 mm | - | - | - |
| 1787435642 | 32.78° C | 26% | 1013.8 hPa | 0 mm | - | - | - |
| 1787435462 | 32.22° C | 26% | 1013.8 hPa | 0 mm | - | - | - |
| 1787435282 | 32.22° C | 27% | 1013.9 hPa | 0 mm | - | - | - |
| 1787435103 | 32.22° C | 27% | 1013.9 hPa | 0 mm | - | - | - |
| 1787434922 | 32.22° C | 27% | 1014 hPa | 0 mm | - | - | - |
| 1787434742 | 32.22° C | 27% | 1013.9 hPa | 0 mm | - | - | - |
| 1787434562 | 32.22° C | 27% | 1014 hPa | 0 mm | - | - | - |
| 1787434382 | 31.67° C | 29% | 1014.3 hPa | 0 mm | - | - | - |
| 1787434203 | 31.67° C | 29% | 1014.1 hPa | 0 mm | - | - | - |
| 1787434022 | 31.67° C | 29% | 1014 hPa | 0 mm | - | - | - |
| 1787433842 | 31.67° C | 29% | 1013.9 hPa | 0 mm | - | - | - |
| 1787433662 | 30.56° C | 31% | 1014.1 hPa | 0 mm | - | - | - |
| 1787433482 | 30.56° C | 31% | 1014 hPa | 0 mm | - | - | - |
| 1787433302 | 30.56° C | 28% | 1014.1 hPa | 0 mm | - | - | - |
| 1787433123 | 30.56° C | 28% | 1014.3 hPa | 0 mm | - | - | - |
| 1787432942 | 30.56° C | 32% | 1014.3 hPa | 0 mm | - | - | - |
| 1787432763 | 30.56° C | 32% | 1014.2 hPa | 0 mm | - | - | - |
| 1787432582 | 30.56° C | 32% | 1014.2 hPa | 0 mm | - | - | - |
| 1787432403 | 30.56° C | 32% | 1014.3 hPa | 0 mm | - | - | - |
| 1787432223 | 30.56° C | 32% | 1014.6 hPa | 0 mm | - | - | - |
* Rain latest hour (hover to see other rain measurements)
** Current wind speed in m/s (hover to see current wind gust speed)